User: anonymous   Login
Location: Baix
(44.7118°N, 4.7648°E)
Time: 14:01:49
(UTC+00:00)
Language:

CZ-4B R/B - Orbit

View from above orbital plane
View from above orbital plane
View from above satellite
View from above satellite

Ground track
Ground track

The orbit data is extracted from the following two-line orbital elements,

1 29093U 06015B   20294.76594421 +.00004859 +00000-0 +94484-4 0  9999
2 29093 097.6306 107.8567 0051595 226.8171 132.8762 15.46678778805957
Epoch (UTC): 20 October 2020 18:22:57
Eccentricity: 0.0051595
inclination: 97.6306°
perigee height: 391 km
apogee height: 461 km
right ascension of ascending node: 107.8567°
argument of perigee: 226.8171°
revolutions per day: 15.46678778
mean anomaly at epoch: 132.8762°
orbit number at epoch: 80595

The dashed part of the orbit path shows where the satellite is in the earth's shadow,  

DLR